Back to catalog

KNACKSAT

AliveScienceSSO
NORAD 43806·PAYLOAD·🇹🇭 Thailand
This satellite name has not been confirmed by official sources yet.

Launched Dec 3, 2018 from Vandenberg Space Force Base

Loading…

Next Passes (next 24 hours)

TLE

FreshSource: Space-Track

Epoch: Sep 14, 2026, 01:36 UTC

1 43806U 18099BA  26257.06709200  .00004421  00000-0  22970-3 0  9998
2 43806  97.3895 302.2334 0007771  31.8336 328.3366 15.16571991425903

Track KNACKSAT in real time with AllMySat

Download on the App Store